Flag for U.S.A. Weather past 2 weeks in Post Falls, Idaho, U.S.A.

Now
75 °F

Sunny.


Feels Like: 77 °F
Forecast: 57 / 81 °F
Wind: 6 mph from Northeast

Location: Coeur d'Alene Weather Reporting System

Current Time: Sep 17, 2014 at 7:02:14 PM

Latest Report: Sep 17, 2014 at 6:35 PM


Visibility: 10 mi

Pressure: 29.70 "Hg

Humidity: 31%

Dew point: 43 °F

Location of Post FallsLocation

Historic Weather in Post Falls — Graph

°F

Post Falls temperature yesterday

Maximum temperature yesterday: 82 °F (at 3:15 PM)
Minimum temperature yesterday: 54 °F (at 2:15 AM)
Average temperature yesterday: 66 °F

Past Weeks' High & Low Weather Summary

 TemperatureHumidityPressure
High84 °F (Sep 17, 3:55 PM)100% (Sep 3, 1:15 AM)30.47 "Hg (Sep 3, 1:15 AM)
Low36 °F (Sep 12, 5:55 AM)10% (Sep 6, 9:35 PM)29.64 "Hg (Sep 2, 9:35 PM)
Average59 °F49%30.02 "Hg
* Reported Sep 2 5:15 PM — Sep 17 5:55 PM, Post Falls, Weather by CustomWeather, © 2014

Note: Actual official high and low records may vary slightly from our data, if they occured in-between our weather recording intervals... More about our weather records

Advertising

Post Falls weather history for previous 24 hours

 ConditionsComfort  
Time TempWeatherWind HumidityBarometerVisibility
5:55 PM
Sep 17
81 °FSunny.8 mph26%29.70 "Hg10 mi
5:35 PM81 °FSunny.8 mph26%29.70 "Hg10 mi
5:15 PM82 °FSunny.6 mph25%29.70 "Hg10 mi
4:55 PM82 °FSunny.5 mph23%29.70 "Hg10 mi
4:35 PM82 °FSunny.7 mph23%29.70 "Hg10 mi
4:15 PM84 °FSunny.9 mph23%29.71 "Hg10 mi
3:55 PM84 °FSunny.7 mph22%29.71 "Hg10 mi
3:35 PM82 °FSunny.No wind21%29.72 "Hg10 mi
3:15 PM82 °FSunny.No wind21%29.73 "Hg10 mi
2:55 PM82 °FSunny.3 mph21%29.74 "Hg10 mi
2:35 PM82 °FSunny.No wind21%29.75 "Hg10 mi
2:15 PM82 °FSunny.5 mph20%29.76 "Hg10 mi
1:55 PM81 °FSunny.No wind23%29.76 "Hg10 mi
1:35 PM81 °FSunny.No wind24%29.76 "Hg10 mi
1:15 PM81 °FSunny.No wind26%29.77 "Hg10 mi
12:55 PM79 °FSunny.3 mph30%29.78 "Hg8 mi
12:35 PM79 °FSunny.3 mph30%29.78 "Hg10 mi
12:15 PM77 °FSunny.5 mph30%29.80 "Hg10 mi
11:55 AM79 °FSunny.5 mph30%29.81 "Hg10 mi
11:35 AM75 °FSunny.3 mph34%29.81 "Hg10 mi
10:55 AM72 °FSunny.9 mph41%29.82 "Hg10 mi
10:35 AM70 °FSunny.10 mph46%29.82 "Hg10 mi
10:15 AM70 °FSunny.12 mph43%29.83 "Hg10 mi
9:55 AM66 °FSunny.10 mph52%29.83 "Hg10 mi
9:35 AM64 °FSunny.10 mph60%29.84 "Hg10 mi
9:15 AM63 °FSunny.10 mph64%29.84 "Hg10 mi
8:55 AM61 °FSunny.13 mph68%29.84 "Hg10 mi
8:35 AM59 °FSunny.8 mph68%29.85 "Hg10 mi
8:15 AM57 °FSunny.3 mph67%29.85 "Hg10 mi
7:55 AM55 °FSunny.6 mph72%29.85 "Hg10 mi
7:35 AM52 °FSunny.3 mph77%29.86 "Hg10 mi
6:55 AM48 °FClear.6 mph76%29.85 "Hg10 mi
6:35 AM50 °FClear.6 mph76%29.85 "Hg10 mi
6:15 AM52 °FClear.3 mph77%29.85 "Hg10 mi
5:55 AM54 °FClear.5 mph72%29.85 "Hg10 mi
5:35 AM54 °FClear.7 mph72%29.85 "Hg10 mi
5:15 AM54 °FClear.7 mph72%29.85 "Hg10 mi
4:55 AM52 °FClear.5 mph77%29.85 "Hg10 mi
4:35 AM52 °FClear.5 mph77%29.85 "Hg10 mi
3:55 AM54 °FClear.No wind72%29.85 "Hg10 mi
3:35 AM55 °FClear.3 mph67%29.85 "Hg10 mi
3:15 AM52 °FClear.6 mph77%29.85 "Hg10 mi
2:55 AM52 °FClear.5 mph77%29.86 "Hg10 mi
2:35 AM50 °FClear.5 mph76%29.86 "Hg10 mi
2:15 AM52 °FClear.No wind77%29.86 "Hg10 mi
1:55 AM54 °FClear.No wind72%29.86 "Hg10 mi
1:35 AM52 °FClear.3 mph72%29.86 "Hg10 mi
1:15 AM54 °FClear.3 mph72%29.86 "Hg10 mi
12:55 AM54 °FClear.5 mph67%29.85 "Hg10 mi
12:35 AM54 °FClear.5 mph67%29.85 "Hg10 mi
12:15 AM54 °FClear.7 mph67%29.85 "Hg10 mi
11:55 PM
Sep 16
54 °FClear.3 mph67%29.85 "Hg10 mi
11:35 PM61 °FClear.No wind63%29.84 "Hg10 mi
10:55 PM61 °FClear.5 mph63%29.84 "Hg10 mi
10:35 PM63 °FClear.No wind52%29.84 "Hg10 mi
10:15 PM63 °FClear.5 mph52%29.83 "Hg10 mi
9:55 PM63 °FClear.3 mph49%29.84 "Hg10 mi
9:35 PM64 °FClear.5 mph46%29.83 "Hg10 mi
9:15 PM64 °FClear.9 mph46%29.83 "Hg10 mi
8:55 PM64 °FClear.7 mph46%29.83 "Hg10 mi
8:35 PM66 °FClear.8 mph49%29.83 "Hg10 mi
8:15 PM68 °FClear.6 mph38%29.83 "Hg10 mi
7:55 PM70 °FSunny.7 mph33%29.83 "Hg10 mi
7:35 PM72 °FSunny.7 mph36%29.83 "Hg10 mi
7:15 PM72 °FSunny.7 mph36%29.82 "Hg10 mi
Weather by CustomWeather, © 2014

See weather overviewHow to use our weather pages